1491710400.3,9635,10.06,73976.3,-6.79,-7.77,-7.73,0,*65
1491710401.57,9636,10.06,73976.8,-6.79,-7.73,-7.73,0,*62
1491710402.82,9637,10.06,73978.3,-6.79,-7.77,-7.87,0,*6C
1491710404.07,9638,10.06,73978.8,-6.81,-7.73,-7.77,0,*6F
1491710405.35,9639,10.06,73978.8,-6.79,-7.73,-7.77,0,*69
1491710406.62,9640,10.06,73978.5,-6.79,-7.73,-7.73,0,*63
1491710407.9,9641,10.06,73976.5,-6.79,-7.73,-7.73,0,*62
1491710409.17,9642,10.0,73974.8,-6.79,-7.77,-7.77,0,*61
1491710410.44,9643,10.06,73978.8,-6.79,-7.77,-7.77,0,*60
1491710411.71,9644,10.06,73978.3,-6.79,-7.77,-7.77,0,*67
1491710412.98,9645,10.0,73976.0,-6.79,-7.77,-7.77,0,*66
1491710414.26,9646,10.0,73978.0,-6.79,-7.73,-7.77,0,*61
1491710415.53,9647,10.0,73976.5,-6.79,-7.77,-7.73,0,*60
1491710416.81,9648,10.0,73976.3,-6.79,-7.73,-7.73,0,*6B
1491710418.09,9649,10.0,73978.5,-6.79,-7.73,-7.77,0,*6E
1491710419.34,9650,10.06,73980.0,-6.81,-7.73,-7.73,0,*65
1491710420.61,9651,10.06,73978.0,-6.79,-7.73,-7.73,0,*63
1491710421.89,9652,10.06,73978.5,-6.79,-7.73,-7.77,0,*64
1491710423.14,9653,10.0,73974.3,-6.79,-7.87,-7.77,0,*6E
1491710424.41,9654,10.0,73976.3,-6.79,-7.77,-7.77,0,*66
1491710425.68,9655,10.06,73978.3,-6.79,-7.77,-7.77,0,*67
1491710426.95,9656,10.06,73978.5,-6.79,-7.77,-7.73,0,*60
1491710428.19,9657,10.06,73978.8,-6.81,-7.77,-7.73,0,*66
1491710429.44,9658,10.0,73976.3,-6.81,-7.77,-7.73,0,*69
1491710430.68,9659,10.06,73978.8,-6.81,-7.77,-7.77,0,*6C
1491710431.95,9660,10.06,73978.5,-6.79,-7.77,-7.77,0,*61
1491710433.22,9661,10.0,73976.5,-6.79,-7.77,-7.77,0,*60
1491710434.45,9662,10.06,73976.0,-6.79,-7.87,-7.87,0,*63
1491710435.66,9663,10.0,73978.3,-6.81,-7.87,-7.77,0,*6A
1491710436.91,9664,10.06,73976.8,-6.79,-7.77,-7.87,0,*6A
1491710438.13,9665,10.0,73978.3,-6.79,-7.87,-7.87,0,*64
1491710439.4,9666,10.0,73976.5,-6.79,-7.77,-7.77,0,*67
1491710440.68,9667,10.0,73972.8,-6.79,-7.77,-7.77,0,*66
1491710441.95,9668,10.0,73978.0,-6.79,-7.77,-7.77,0,*69
1491710443.22,9669,10.0,73976.8,-6.79,-7.77,-7.77,0,*68
1491710444.46,9670,10.06,73976.3,-6.79,-7.77,-7.87,0,*6F
1491710445.73,9671,10.06,73980.0,-6.79,-7.77,-7.77,0,*61
1491710446.98,9672,10.0,73978.0,-6.81,-7.77,-7.77,0,*65
1491710448.22,9673,10.0,73978.0,-6.81,-7.77,-7.77,0,*64
1491710449.49,9674,10.06,73978.0,-6.79,-7.77,-7.77,0,*64
1491710450.74,9675,10.0,73976.3,-6.81,-7.77,-7.77,0,*62
1491710452.01,9676,10.06,73978.0,-6.79,-7.77,-7.77,0,*66
1491710453.28,9677,10.0,73978.0,-6.79,-7.77,-7.77,0,*67
1491710454.55,9678,10.0,73976.0,-6.79,-7.77,-7.77,0,*68
1491710455.8,9679,10.0,73974.3,-6.79,-7.87,-7.77,0,*66
1491710457.04,9680,10.06,73978.8,-6.79,-7.77,-7.87,0,*60
1491710458.29,9681,10.06,73978.8,-6.79,-7.87,-7.77,0,*61
1491710459.56,9682,10.06,73976.3,-6.79,-7.77,-7.77,0,*6D
1491710460.83,9683,10.0,73976.3,-6.79,-7.77,-7.77,0,*6C
1491710462.05,9684,10.0,73978.3,-6.79,-7.87,-7.87,0,*6B
1491710463.3,9685,10.0,73974.5,-6.79,-7.87,-7.77,0,*65
1491710464.57,9686,10.0,73974.5,-6.79,-7.77,-7.77,0,*69
1491710465.79,9687,10.0,73976.8,-6.79,-7.87,-7.87,0,*68
1491710466.99,9688,10.0,73972.0,-6.81,-7.87,-7.87,0,*60
1491710468.23,9689,10.0,73978.3,-6.81,-7.77,-7.77,0,*61
1491710469.45,9690,10.0,73978.3,-6.81,-7.87,-7.77,0,*66
1491710470.69,9691,10.0,73978.5,-6.81,-7.77,-7.77,0,*68
1491710471.92,9692,10.0,73976.3,-6.79,-7.87,-7.87,0,*6C
1491710473.14,9693,10.0,73978.0,-6.81,-7.77,-7.87,0,*65
1491710474.41,9694,10.0,73974.5,-6.79,-7.77,-7.73,0,*6E
1491710475.63,9695,10.0,73976.0,-6.79,-7.87,-7.87,0,*6B
1491710476.85,9696,10.0,73978.0,-6.79,-7.87,-7.87,0,*68
1491710478.05,9697,10.0,73978.5,-6.81,-7.87,-7.87,0,*6E
1491710479.27,9698,10.0,73974.5,-6.79,-7.87,-7.87,0,*66
1491710480.52,9699,10.0,73976.8,-6.81,-7.77,-7.77,0,*60
1491710481.76,9700,10.06,73980.0,-6.81,-7.77,-7.77,0,*61
1491710482.96,9701,10.0,73976.8,-6.81,-7.87,-7.87,0,*60
1491710484.18,9702,10.06,73978.5,-6.81,-7.87,-7.77,0,*6C
1491710485.37,9703,10.0,73974.0,-6.81,-7.87,-7.87,0,*62
1491710486.59,9704,10.06,73976.8,-6.81,-7.87,-7.77,0,*6A
1491710487.81,9705,10.0,73976.5,-6.79,-7.87,-7.87,0,*63
1491710489.06,9706,10.0,73978.0,-6.81,-7.77,-7.91,0,*6F
1491710490.28,9707,10.0,73974.3,-6.81,-7.77,-7.87,0,*69
1491710491.5,9708,10.0,73974.5,-6.81,-7.77,-7.87,0,*66
1491710492.72,9709,10.0,73978.5,-6.81,-7.91,-7.87,0,*6F
1491710493.91,9710,10.06,73978.8,-6.81,-7.87,-7.87,0,*60
1491710495.13,9711,10.0,73976.0,-6.81,-7.77,-7.87,0,*6E
1491710496.35,9712,10.06,73978.0,-6.81,-7.77,-7.87,0,*6D
1491710497.58,9713,10.0,73976.0,-6.79,-7.87,-7.87,0,*64
1491710498.79,9714,10.06,73976.0,-6.81,-7.87,-7.77,0,*6B
1491710499.99,9715,10.0,73974.8,-6.81,-7.87,-7.87,0,*65
1491710501.21,9716,10.06,73978.5,-6.81,-7.77,-7.87,0,*69
1491710502.43,9717,10.0,73976.3,-6.81,-7.91,-7.87,0,*60
1491710503.65,9718,10.06,73976.8,-6.81,-7.87,-7.77,0,*67
1491710504.89,9719,10.06,73978.8,-6.81,-7.91,-7.77,0,*61
1491710506.14,9720,10.06,73976.8,-6.79,-7.91,-7.87,0,*63
1491710507.36,9721,10.06,73978.0,-6.81,-7.77,-7.87,0,*6D
1491710508.57,9722,10.0,73974.8,-6.81,-7.87,-7.91,0,*66
1491710509.77,9723,10.0,73974.3,-6.81,-7.87,-7.87,0,*60
1491710510.99,9724,10.0,73974.0,-6.79,-7.87,-7.87,0,*60
1491710512.23,9725,10.0,73974.5,-6.81,-7.77,-7.91,0,*6E
1491710513.45,9726,10.06,73976.5,-6.81,-7.87,-7.77,0,*6A
1491710514.67,9727,10.06,73978.0,-6.81,-7.87,-7.91,0,*63
1491710515.87,9728,10.0,73974.0,-6.81,-7.87,-7.87,0,*6B
1491710517.09,9729,10.06,73976.5,-6.81,-7.83,-7.91,0,*69
1491710518.28,9730,10.06,73978.5,-6.81,-7.83,-7.83,0,*62
1491710519.52,9731,10.06,73978.8,-6.81,-7.91,-7.91,0,*63
1491710520.74,9732,10.06,73978.8,-6.81,-7.91,-7.83,0,*63
1491710521.94,9733,10.06,73976.5,-6.81,-7.83,-7.83,0,*61
1491710523.18,9734,10.0,73976.5,-6.81,-7.91,-7.91,0,*66
1491710524.4,9735,10.0,73976.0,-6.81,-7.91,-7.83,0,*64
1491710525.64,9736,10.06,73978.3,-6.81,-7.91,-7.91,0,*64
1491710526.88,9737,10.0,73976.3,-6.81,-7.91,-7.91,0,*65
1491710528.09,9738,10.06,73978.8,-6.81,-7.83,-7.95,0,*6D
1491710529.31,9739,10.06,73978.5,-6.81,-7.95,-7.83,0,*6C
1491710530.55,9740,10.06,73982.3,-6.81,-7.91,-7.91,0,*65
1491710531.79,9741,10.06,73976.5,-6.81,-7.95,-7.95,0,*64
1491710533.01,9742,10.06,73976.5,-6.81,-7.87,-7.99,0,*68
1491710534.25,9743,10.0,73978.0,-6.81,-7.91,-7.91,0,*66
1491710535.46,9744,10.06,73980.3,-6.81,-7.83,-7.91,0,*62
1491710536.68,9745,10.06,73976.3,-6.81,-7.83,-7.91,0,*63
1491710537.92,9746,10.06,73978.0,-6.81,-7.91,-7.91,0,*63
1491710539.16,9747,10.06,73976.8,-6.81,-7.91,-7.91,0,*62
1491710540.38,9748,10.0,73974.3,-6.81,-7.95,-7.83,0,*6A
1491710541.6,9749,10.06,73976.3,-6.81,-7.91,-7.83,0,*6F
1491710542.82,9750,10.0,73976.5,-6.81,-7.91,-7.83,0,*67
1491710544.04,9751,10.06,73976.0,-6.85,-7.95,-7.87,0,*62
1491710545.28,9752,10.06,73976.8,-6.81,-7.91,-7.91,0,*66
1491710546.5,9753,10.0,73976.0,-6.81,-7.91,-7.83,0,*64
1491710547.71,9754,10.06,73976.3,-6.85,-7.95,-7.87,0,*67
1491710548.93,9755,10.0,73976.5,-6.81,-7.91,-7.83,0,*62
1491710550.15,9756,10.06,73978.5,-6.81,-7.91,-7.83,0,*61
1491710551.39,9757,10.06,73976.3,-6.81,-7.95,-7.91,0,*67
1491710552.63,9758,10.0,73974.5,-6.81,-7.91,-7.91,0,*6C
1491710553.87,9759,10.06,73976.5,-6.81,-7.91,-7.91,0,*6D
1491710555.09,9760,10.0,73974.0,-6.81,-7.91,-7.83,0,*64
1491710556.33,9761,10.0,73978.5,-6.81,-7.91,-7.91,0,*66
1491710557.55,9762,10.0,73976.0,-6.81,-7.91,-7.83,0,*66
1491710558.77,9763,10.0,73976.0,-6.81,-7.83,-7.91,0,*67
1491710559.97,9764,10.0,73976.0,-6.81,-7.83,-7.83,0,*63
1491710561.18,9765,10.0,73976.0,-6.85,-7.95,-7.87,0,*65
1491710562.42,9766,10.06,73978.3,-6.81,-7.91,-7.91,0,*61
1491710563.66,9767,10.0,73978.0,-6.81,-7.91,-7.91,0,*60
1491710564.88,9768,10.06,73976.0,-6.81,-7.91,-7.83,0,*6C
1491710566.12,9769,10.0,73978.3,-6.81,-7.91,-7.91,0,*6E
1491710567.36,9770,10.0,73978.5,-6.85,-7.95,-7.95,0,*62
1491710568.58,9771,10.0,73974.8,-6.81,-7.83,-7.91,0,*64
1491710569.81,9772,10.0,73978.3,-6.81,-7.91,-7.91,0,*64
1491710571.03,9773,10.06,73978.5,-6.81,-7.91,-7.83,0,*66
1491710572.24,9774,10.0,73976.0,-6.85,-7.87,-7.95,0,*65
1491710573.46,9775,10.0,73976.3,-6.81,-7.83,-7.91,0,*60
1491710574.68,9776,10.0,73978.8,-6.81,-7.83,-7.91,0,*63
1491710575.92,9777,10.06,73976.8,-6.81,-7.91,-7.91,0,*61
1491710577.16,9778,10.06,73978.0,-6.81,-7.91,-7.91,0,*6E
1491710578.38,9779,10.0,73974.3,-6.81,-7.91,-7.83,0,*6C
1491710579.62,9780,10.0,73976.0,-6.81,-7.95,-7.95,0,*69
1491710580.81,9781,10.0,73978.0,-6.85,-7.87,-7.83,0,*68
1491710582.03,9782,10.0,73972.3,-6.81,-7.87,-7.95,0,*68
1491710583.24,9783,10.06,73978.8,-6.85,-7.95,-7.87,0,*6D
1491710584.46,9784,10.0,73978.0,-6.81,-7.91,-7.83,0,*6E
1491710585.67,9785,10.0,73976.8,-6.85,-7.87,-7.95,0,*6B
1491710586.91,9786,10.0,73974.8,-6.81,-7.91,-7.91,0,*6F
1491710588.15,9787,10.0,73978.3,-6.81,-7.91,-7.91,0,*6E
1491710589.39,9788,10.0,73974.3,-6.85,-7.95,-7.95,0,*65
1491710590.63,9789,10.0,73976.0,-6.81,-7.95,-7.95,0,*60
1491710591.87,9790,10.0,73978.0,-6.81,-7.91,-7.91,0,*68
1491710593.06,9791,10.0,73976.8,-6.81,-7.83,-7.83,0,*69
1491710594.26,9792,10.0,73978.0,-6.81,-7.83,-7.83,0,*6A
1491710595.47,9793,10.0,73974.3,-6.85,-7.87,-7.95,0,*6C
1491710596.71,9794,10.0,73978.8,-6.85,-7.95,-7.95,0,*68
1491710597.95,9795,10.0,73976.0,-6.85,-7.95,-7.95,0,*69
1491710599.16,9796,10.0,73974.0,-6.85,-7.95,-7.87,0,*69
1491710600.38,9797,10.0,73974.0,-6.85,-7.87,-7.95,0,*68
1491710601.57,9798,10.0,73976.8,-6.81,-7.83,-7.83,0,*60
1491710602.81,9799,10.06,73980.3,-6.81,-7.91,-7.91,0,*61
1491710604.03,9800,10.0,73974.0,-6.81,-7.91,-7.83,0,*6D
1491710605.22,9801,10.06,73978.8,-6.85,-7.83,-7.83,0,*6B
1491710606.44,9802,10.0,73976.3,-6.81,-7.95,-7.87,0,*6F
1491710607.66,9803,10.0,73976.3,-6.81,-7.95,-7.83,0,*6A
1491710608.91,9804,10.0,73976.0,-6.81,-7.91,-7.91,0,*6A
1491710610.12,9805,10.0,73974.5,-6.85,-7.95,-7.87,0,*6C
1491710611.32,9806,10.0,73978.3,-6.85,-7.87,-7.87,0,*6C
1491710612.55,9807,10.0,73972.8,-6.85,-7.95,-7.95,0,*6D
1491710613.75,9808,10.0,73978.5,-6.85,-7.87,-7.87,0,*62
1491710614.97,9809,10.0,73978.8,-6.81,-7.77,-7.83,0,*6C
1491710616.16,9810,10.0,73976.3,-6.85,-7.87,-7.87,0,*6B
1491710617.38,9811,10.0,73978.8,-6.81,-7.83,-7.91,0,*6D
1491710618.59,9812,10.0,73976.8,-6.85,-7.87,-7.95,0,*6A
1491710619.8,9813,10.0,73976.3,-6.85,-7.87,-7.95,0,*6B
1491710620.99,9814,10.0,73976.3,-6.85,-7.87,-7.87,0,*6F
1491710622.19,9815,10.0,73974.8,-6.81,-7.83,-7.83,0,*6A
1491710623.39,9816,10.0,73978.8,-6.85,-7.83,-7.87,0,*69
1491710624.58,9817,10.0,73974.5,-6.81,-7.83,-7.83,0,*68
1491710625.78,9818,10.0,73978.5,-6.81,-7.83,-7.83,0,*67
1491710627.0,9819,10.0,73976.8,-6.81,-7.83,-7.77,0,*6D
1491710628.19,9820,10.0,73978.8,-6.85,-7.87,-7.83,0,*6C
1491710629.4,9821,10.0,73974.8,-6.85,-7.87,-7.95,0,*6A
1491710630.6,9822,10.0,73976.8,-6.85,-7.83,-7.87,0,*6E
1491710631.81,9823,10.0,73976.0,-6.85,-7.87,-7.95,0,*68
1491710633.05,9824,10.0,73978.0,-6.81,-7.91,-7.91,0,*68
1491710634.25,9825,10.06,73980.8,-6.81,-7.83,-7.83,0,*69
1491710635.44,9826,10.0,73974.3,-6.81,-7.83,-7.83,0,*6A
1491710636.66,9827,10.0,73976.3,-6.81,-7.83,-7.77,0,*60
1491710637.86,9828,10.0,73972.5,-6.85,-7.87,-7.87,0,*60
1491710639.05,9829,10.0,73978.5,-6.81,-7.83,-7.83,0,*65
1491710640.25,9830,10.0,73978.3,-6.85,-7.87,-7.87,0,*69
1491710641.47,9831,10.0,73976.0,-6.81,-7.91,-7.83,0,*6F
1491710642.66,9832,10.06,73976.5,-6.85,-7.87,-7.87,0,*6B
1491710643.88,9833,10.0,73976.8,-6.81,-7.91,-7.83,0,*6D
1491710645.08,9834,10.06,73978.8,-6.81,-7.83,-7.83,0,*69
1491710646.27,9835,10.0,73974.8,-6.81,-7.83,-7.83,0,*68
1491710647.47,9836,10.0,73976.8,-6.81,-7.83,-7.83,0,*6B
1491710648.66,9837,10.06,73980.0,-6.85,-7.83,-7.83,0,*6E
1491710649.88,9838,10.0,73976.3,-6.81,-7.91,-7.83,0,*66
1491710651.1,9839,10.0,73976.8,-6.85,-7.83,-7.77,0,*6B
1491710652.29,9840,10.0,73978.8,-6.85,-7.83,-7.87,0,*6A
1491710653.51,9841,10.0,73976.8,-6.81,-7.77,-7.83,0,*60
1491710654.74,9842,10.0,73976.8,-6.81,-7.77,-7.83,0,*63
1491710655.95,9843,10.0,73978.5,-6.85,-7.83,-7.95,0,*6A
1491710657.14,9844,10.06,73978.8,-6.85,-7.83,-7.87,0,*6E
1491710658.36,9845,10.06,73978.8,-6.81,-7.77,-7.83,0,*64
1491710659.56,9846,10.0,73972.3,-6.85,-7.83,-7.83,0,*68
1491710660.8,9847,10.0,73976.3,-6.81,-7.77,-7.77,0,*6D
1491710661.99,9848,10.0,73976.0,-6.85,-7.87,-7.87,0,*66
1491710663.19,9849,10.06,73976.5,-6.85,-7.83,-7.87,0,*63
1491710664.38,9850,10.06,73978.5,-6.85,-7.87,-7.87,0,*6F
1491710665.57,9851,10.0,73978.0,-6.85,-7.87,-7.87,0,*6E
1491710666.77,9852,10.06,73978.5,-6.85,-7.87,-7.83,0,*69
1491710667.98,9853,10.0,73976.0,-6.85,-7.69,-7.83,0,*68
1491710669.18,9854,10.06,73976.5,-6.85,-7.87,-7.83,0,*6F
1491710670.37,9855,10.0,73978.5,-6.81,-7.83,-7.83,0,*6E
1491710671.57,9856,10.0,73978.3,-6.81,-7.83,-7.83,0,*6D
1491710672.77,9857,10.0,73976.3,-6.81,-7.87,-7.87,0,*6C
1491710673.99,9858,10.0,73974.5,-6.81,-7.77,-7.83,0,*68
1491710675.19,9859,10.06,73978.5,-6.81,-7.83,-7.83,0,*62
1491710676.41,9860,10.0,73976.5,-6.81,-7.77,-7.83,0,*63
1491710677.62,9861,10.0,73978.0,-6.85,-7.83,-7.77,0,*66
1491710678.84,9862,10.06,73976.5,-6.81,-7.87,-7.73,0,*61
1491710680.06,9863,10.0,73976.3,-6.81,-7.83,-7.77,0,*60
1491710681.26,9864,10.06,73978.5,-6.85,-7.83,-7.83,0,*68
1491710682.45,9865,10.06,73978.5,-6.85,-7.87,-7.87,0,*69
1491710683.7,9866,10.06,73978.8,-6.81,-7.77,-7.77,0,*6E
1491710684.94,9867,10.0,73978.5,-6.81,-7.77,-7.77,0,*6F
1491710686.16,9868,10.0,73976.0,-6.85,-7.95,-7.83,0,*63
1491710687.38,9869,10.0,73978.5,-6.85,-7.83,-7.73,0,*6A
1491710688.62,9870,10.0,73976.0,-6.81,-7.77,-7.69,0,*66
1491710689.86,9871,10.0,73976.8,-6.81,-7.69,-7.77,0,*67
1491710691.1,9872,10.0,73976.3,-6.81,-7.77,-7.69,0,*64
1491710692.29,9873,10.0,73976.3,-6.85,-7.83,-7.83,0,*6E
1491710693.49,9874,10.0,73978.5,-6.85,-7.83,-7.83,0,*69
1491710694.73,9875,10.06,73978.8,-6.81,-7.77,-7.69,0,*63
1491710695.97,9876,10.0,73976.0,-6.81,-7.77,-7.69,0,*60
1491710697.19,9877,10.0,73978.3,-6.81,-7.69,-7.83,0,*6A
1491710698.38,9878,10.06,73978.5,-6.85,-7.83,-7.83,0,*65
1491710699.63,9879,10.0,73976.8,-6.81,-7.77,-7.77,0,*60
1491710700.82,9880,10.0,73976.0,-6.85,-7.83,-7.87,0,*66
1491710702.02,9881,10.06,73976.5,-6.85,-7.83,-7.83,0,*63
1491710703.26,9882,10.0,73976.3,-6.81,-7.91,-7.77,0,*6C
1491710704.5,9883,10.0,73978.3,-6.81,-7.77,-7.77,0,*65
1491710705.72,9884,10.06,73980.3,-6.81,-7.83,-7.77,0,*69
1491710706.96,9885,10.0,73976.3,-6.81,-7.77,-7.69,0,*6C
1491710708.2,9886,10.0,73976.5,-6.81,-7.77,-7.69,0,*6F
1491710709.45,9887,10.0,73976.5,-6.81,-7.77,-7.77,0,*61
1491710710.67,9888,10.0,73978.0,-6.85,-7.73,-7.83,0,*65
1491710711.91,9889,10.06,73980.3,-6.81,-7.77,-7.77,0,*6F
1491710713.11,9890,10.0,73976.8,-6.85,-7.83,-7.83,0,*63
1491710714.35,9891,10.0,73978.8,-6.81,-7.77,-7.77,0,*66
1491710715.55,9892,10.06,73980.3,-6.85,-7.83,-7.83,0,*61
1491710716.74,9893,10.06,73980.8,-6.85,-7.83,-7.83,0,*60
1491710717.94,9894,10.0,73978.8,-6.85,-7.83,-7.87,0,*63
1491710719.18,9895,10.06,73980.3,-6.81,-7.77,-7.69,0,*6D
1491710720.42,9896,10.0,73978.0,-6.81,-7.69,-7.77,0,*6E
1491710721.61,9897,10.0,73976.0,-6.85,-7.83,-7.83,0,*64
1491710722.81,9898,10.0,73978.0,-6.85,-7.83,-7.87,0,*6F
1491710724.03,9899,10.0,73980.3,-6.81,-7.77,-7.83,0,*65
1491710725.27,9900,10.0,73978.3,-6.81,-7.77,-7.77,0,*6F
1491710726.52,9901,10.0,73980.0,-6.81,-7.73,-7.77,0,*6A
1491710727.74,9902,10.0,73978.5,-6.85,-7.83,-7.73,0,*66
1491710728.96,9903,10.06,73982.3,-6.85,-7.83,-7.73,0,*67
1491710730.2,9904,10.0,73978.0,-6.81,-7.77,-7.77,0,*6B
1491710731.44,9905,10.0,73978.3,-6.81,-7.69,-7.77,0,*65
1491710732.66,9906,10.0,73976.8,-6.85,-7.83,-7.73,0,*62
1491710733.91,9907,10.0,73978.3,-6.81,-7.77,-7.77,0,*68
1491710735.15,9908,10.0,73978.3,-6.81,-7.69,-7.77,0,*68
1491710736.39,9909,10.0,73976.5,-6.81,-7.77,-7.77,0,*66
1491710737.64,9910,10.0,73976.5,-6.81,-7.69,-7.77,0,*61
1491710738.88,9911,10.06,73980.0,-6.81,-7.77,-7.77,0,*6F
1491710740.12,9912,10.0,73978.0,-6.81,-7.77,-7.69,0,*63
1491710741.37,9913,10.0,73980.3,-6.81,-7.77,-7.77,0,*6D
1491710742.56,9914,10.0,73980.5,-6.85,-7.83,-7.83,0,*6E
1491710743.8,9915,10.0,73978.3,-6.81,-7.77,-7.69,0,*64
1491710745.05,9916,10.0,73974.5,-6.81,-7.77,-7.77,0,*68
1491710746.26,9917,10.0,73976.8,-6.85,-7.77,-7.83,0,*66
1491710747.51,9918,10.0,73978.3,-6.81,-7.77,-7.77,0,*66
1491710748.75,9919,10.0,73980.0,-6.81,-7.69,-7.77,0,*68
1491710750.0,9920,10.06,73980.3,-6.81,-7.77,-7.77,0,*6D
1491710751.19,9921,10.0,73978.5,-6.85,-7.87,-7.83,0,*6C
1491710752.38,9922,10.0,73980.5,-6.81,-7.83,-7.83,0,*6F
1491710753.63,9923,10.06,73980.5,-6.81,-7.69,-7.69,0,*6E
1491710754.87,9924,10.06,73980.3,-6.81,-7.77,-7.77,0,*69
1491710756.11,9925,10.0,73978.8,-6.81,-7.77,-7.77,0,*68
1491710757.36,9926,10.0,73978.3,-6.81,-7.77,-7.77,0,*6B
1491710758.6,9927,10.0,73980.0,-6.81,-7.77,-7.69,0,*65
1491710759.82,9928,10.0,73976.8,-6.85,-7.83,-7.73,0,*6E
1491710761.06,9929,10.06,73980.8,-6.85,-7.69,-7.77,0,*6F
1491710762.31,9930,10.0,73976.5,-6.81,-7.73,-7.65,0,*6B
1491710763.55,9931,10.0,73976.8,-6.81,-7.77,-7.77,0,*6D
1491710764.74,9932,10.0,73976.8,-6.85,-7.83,-7.87,0,*6E
1491710765.99,9933,10.0,73978.0,-6.81,-7.77,-7.77,0,*6F
1491710767.23,9934,10.06,73978.8,-6.81,-7.77,-7.77,0,*68
1491710768.45,9935,10.06,73982.0,-6.85,-7.83,-7.69,0,*69
1491710769.69,9936,10.0,73976.8,-6.81,-7.77,-7.77,0,*6A
1491710770.93,9937,10.06,73982.0,-6.81,-7.77,-7.77,0,*6B
1491710772.18,9938,10.06,73980.5,-6.81,-7.69,-7.77,0,*6B
1491710773.42,9939,10.06,73980.8,-6.81,-7.77,-7.69,0,*6A
1491710774.61,9940,10.06,73982.5,-6.85,-7.83,-7.83,0,*6F
1491710775.86,9941,10.0,73976.5,-6.81,-7.77,-7.77,0,*6A
1491710777.1,9942,10.0,73980.0,-6.81,-7.69,-7.77,0,*66
1491710778.34,9943,10.0,73978.3,-6.81,-7.77,-7.77,0,*68
1491710779.57,9944,10.0,73976.8,-6.85,-7.73,-7.83,0,*64
1491710780.81,9945,10.0,73980.0,-6.81,-7.77,-7.77,0,*6E
1491710782.06,9946,10.0,73976.0,-6.81,-7.77,-7.77,0,*6D
1491710783.31,9947,10.0,73976.5,-6.81,-7.73,-7.73,0,*6C
1491710784.55,9948,10.06,73980.5,-6.81,-7.65,-7.65,0,*63
1491710785.8,9949,10.0,73980.0,-6.81,-7.73,-7.69,0,*69
1491710787.04,9950,10.0,73978.3,-6.81,-7.77,-7.77,0,*6A
1491710788.29,9951,10.0,73978.5,-6.81,-7.77,-7.77,0,*6B
1491710789.53,9952,10.0,73976.0,-6.81,-7.65,-7.73,0,*6F
1491710790.78,9953,10.06,73980.3,-6.81,-7.73,-7.65,0,*6E
1491710792.03,9954,10.0,73978.0,-6.81,-7.77,-7.77,0,*6E
1491710793.27,9955,10.0,73980.3,-6.81,-7.77,-7.69,0,*60
1491710794.51,9956,10.0,73978.8,-6.81,-7.77,-7.77,0,*6C
1491710795.76,9957,10.0,73972.5,-6.81,-7.77,-7.77,0,*6D
1491710796.98,9958,10.0,73976.8,-6.85,-7.73,-7.83,0,*69
1491710798.22,9959,10.0,73976.3,-6.81,-7.69,-7.77,0,*6C
1491710799.48,9960,10.0,73976.8,-6.81,-7.73,-7.73,0,*69
1491710800.73,9961,10.0,73978.3,-6.81,-7.73,-7.65,0,*6F
1491710801.98,9962,10.06,73980.5,-6.81,-7.73,-7.73,0,*6B
1491710803.23,9963,10.0,73978.0,-6.81,-7.73,-7.65,0,*6D
1491710804.48,9964,10.0,73982.0,-6.81,-7.73,-7.73,0,*6D
1491710805.73,9965,10.0,73978.3,-6.81,-7.73,-7.73,0,*6C
1491710806.97,9966,10.0,73978.8,-6.81,-7.77,-7.77,0,*6F
1491710808.17,9967,10.06,73980.3,-6.85,-7.83,-7.83,0,*6A
1491710809.42,9968,10.0,73976.3,-6.81,-7.73,-7.73,0,*61
1491710810.66,9969,10.0,73978.5,-6.81,-7.69,-7.69,0,*60
1491710811.9,9970,10.0,73978.8,-6.81,-7.77,-7.77,0,*68
1491710813.14,9971,10.0,73978.0,-6.81,-7.69,-7.77,0,*66
1491710814.39,9972,10.06,73982.8,-6.81,-7.77,-7.77,0,*6A
1491710815.63,9973,10.0,73978.8,-6.81,-7.69,-7.77,0,*64
1491710816.88,9974,10.0,73980.3,-6.81,-7.73,-7.65,0,*6B
1491710818.13,9975,10.0,73980.5,-6.81,-7.65,-7.65,0,*6D
1491710819.37,9976,10.06,73980.5,-6.81,-7.65,-7.73,0,*69
1491710820.62,9977,10.0,73978.3,-6.81,-7.73,-7.73,0,*6F
1491710821.86,9978,10.0,73982.8,-6.81,-7.69,-7.69,0,*60
1491710823.11,9979,10.0,73982.3,-6.81,-7.77,-7.77,0,*61
1491710824.35,9980,10.0,73980.5,-6.81,-7.77,-7.69,0,*68
1491710825.59,9981,10.0,73978.3,-6.81,-7.77,-7.77,0,*66
1491710826.84,9982,10.0,73980.3,-6.81,-7.77,-7.77,0,*65
1491710828.08,9983,10.0,73982.0,-6.81,-7.77,-7.69,0,*6B
1491710829.32,9984,10.06,73982.5,-6.81,-7.77,-7.77,0,*63
1491710830.56,9985,10.0,73978.5,-6.81,-7.77,-7.69,0,*6D
1491710831.8,9986,10.06,73982.5,-6.81,-7.77,-7.69,0,*6E
1491710833.05,9987,10.0,73980.5,-6.81,-7.77,-7.77,0,*60
1491710834.29,9988,10.06,73980.8,-6.81,-7.77,-7.77,0,*6F
1491710835.51,9989,10.0,73980.0,-6.81,-7.77,-7.83,0,*65
1491710836.75,9990,10.06,73982.5,-6.81,-7.77,-7.69,0,*69
1491710838.0,9991,10.06,73982.0,-6.81,-7.77,-7.77,0,*67
1491710839.24,9992,10.06,73980.5,-6.81,-7.69,-7.77,0,*6B
1491710840.48,9993,10.0,73980.3,-6.81,-7.77,-7.69,0,*6A
1491710841.72,9994,10.06,73980.5,-6.81,-7.69,-7.69,0,*62
1491710842.96,9995,10.0,73978.8,-6.81,-7.69,-7.69,0,*63
1491710844.2,9996,10.06,73982.8,-6.81,-7.69,-7.77,0,*6F
1491710845.45,9997,10.0,73978.8,-6.81,-7.77,-7.77,0,*61
1491710846.7,9998,10.0,73980.8,-6.81,-7.73,-7.73,0,*6E
1491710847.95,9999,10.06,73980.0,-6.81,-7.73,-7.65,0,*68
1491710849.23,10000,10.06,73982.5,-6.79,-7.73,-7.73,0,*59
1491710850.48,10001,10.0,73976.5,-6.81,-7.77,-7.69,0,*50
1491710851.73,10002,10.06,73984.5,-6.81,-7.73,-7.65,0,*5B
1491710852.99,10003,10.0,73976.8,-6.81,-7.73,-7.73,0,*5D
1491710854.23,10004,10.0,73976.0,-6.81,-7.77,-7.69,0,*55
1491710855.48,10005,10.06,73982.5,-6.81,-7.77,-7.77,0,*5B
1491710856.73,10006,10.06,73982.3,-6.81,-7.77,-7.69,0,*57
1491710857.99,10007,10.0,73980.8,-6.81,-7.73,-7.73,0,*59
1491710859.24,10008,10.0,73980.8,-6.81,-7.65,-7.73,0,*51
1491710860.52,10009,10.06,73982.8,-6.79,-7.65,-7.65,0,*50
1491710861.77,10010,10.0,73982.3,-6.81,-7.73,-7.73,0,*5F
1491710863.03,10011,10.06,73982.5,-6.81,-7.73,-7.65,0,*59
1491710864.28,10012,10.0,73976.8,-6.81,-7.65,-7.73,0,*5A
1491710865.54,10013,10.0,73980.0,-6.81,-7.73,-7.73,0,*5C
1491710866.82,10014,10.06,73980.5,-6.79,-7.73,-7.65,0,*5B
1491710868.08,10015,10.0,73978.3,-6.81,-7.73,-7.73,0,*5A
1491710869.36,10016,10.06,73980.3,-6.79,-7.73,-7.73,0,*5E
1491710870.61,10017,10.06,73982.5,-6.81,-7.65,-7.65,0,*58
1491710871.86,10018,10.0,73978.5,-6.81,-7.69,-7.77,0,*58
1491710873.11,10019,10.0,73980.5,-6.81,-7.77,-7.77,0,*56
1491710874.36,10020,10.06,73980.3,-6.81,-7.65,-7.65,0,*5C
1491710875.62,10021,10.06,73982.0,-6.81,-7.73,-7.65,0,*5A
1491710876.87,10022,10.06,73980.5,-6.81,-7.73,-7.73,0,*5E
1491710878.13,10023,10.0,73978.0,-6.81,-7.73,-7.65,0,*58
1491710879.38,10024,10.0,73982.8,-6.81,-7.65,-7.65,0,*58
1491710880.63,10025,10.06,73980.5,-6.81,-7.65,-7.73,0,*5E
1491710881.88,10026,10.0,73982.0,-6.81,-7.65,-7.65,0,*5A
1491710883.14,10027,10.06,73982.0,-6.81,-7.73,-7.73,0,*5B
1491710884.4,10028,10.0,73982.8,-6.81,-7.73,-7.73,0,*54
1491710885.68,10029,10.0,73982.0,-6.79,-7.65,-7.65,0,*52
1491710886.96,10030,10.0,73976.0,-6.79,-7.73,-7.73,0,*5A
1491710888.21,10031,10.06,73982.5,-6.81,-7.73,-7.73,0,*5C
1491710889.47,10032,10.06,73982.0,-6.81,-7.73,-7.73,0,*5F
1491710890.72,10033,10.0,73980.5,-6.81,-7.65,-7.73,0,*59
1491710891.98,10034,10.0,73982.0,-6.81,-7.73,-7.73,0,*59
1491710893.24,10035,10.06,73980.3,-6.81,-7.73,-7.73,0,*58
1491710894.49,10036,10.0,73976.5,-6.81,-7.73,-7.73,0,*5B
1491710895.75,10037,10.06,73980.5,-6.81,-7.73,-7.65,0,*5D
1491710897.0,10038,10.0,73978.8,-6.81,-7.73,-7.73,0,*55
1491710898.26,10039,10.06,73984.5,-6.81,-7.65,-7.73,0,*53
1491710899.51,10040,10.06,73980.5,-6.81,-7.73,-7.73,0,*5A
1491710900.77,10041,10.0,73978.5,-6.81,-7.73,-7.73,0,*5B
1491710902.03,10042,10.0,73978.5,-6.81,-7.73,-7.73,0,*58
1491710903.28,10043,10.06,73980.5,-6.81,-7.65,-7.77,0,*5A
1491710904.53,10044,10.06,73982.8,-6.81,-7.73,-7.65,0,*59
1491710905.82,10045,10.06,73982.5,-6.79,-7.73,-7.73,0,*58
1491710907.07,10046,10.0,73978.8,-6.81,-7.73,-7.73,0,*5C
1491710908.33,10047,10.0,73978.0,-6.81,-7.73,-7.73,0,*5D
1491710909.61,10048,10.06,73980.8,-6.79,-7.77,-7.73,0,*51
1491710910.86,10049,10.06,73980.8,-6.81,-7.73,-7.73,0,*53
1491710912.12,10050,10.06,73982.5,-6.81,-7.73,-7.73,0,*5B
1491710913.38,10051,10.06,73980.5,-6.81,-7.73,-7.77,0,*5E
1491710914.63,10052,10.0,73980.0,-6.81,-7.77,-7.73,0,*5D
1491710915.88,10053,10.06,73980.0,-6.81,-7.73,-7.73,0,*58
1491710917.17,10054,10.06,73982.8,-6.79,-7.73,-7.73,0,*58
1491710918.42,10055,10.06,73980.8,-6.81,-7.65,-7.73,0,*59
1491710919.67,10056,10.0,73980.0,-6.81,-7.65,-7.73,0,*5A
1491710920.93,10057,10.06,73980.0,-6.81,-7.73,-7.73,0,*5C
1491710922.18,10058,10.06,73982.5,-6.81,-7.77,-7.73,0,*57
1491710923.43,10059,10.06,73982.0,-6.81,-7.77,-7.73,0,*56